User: anonymous   Login
Location: Unspecified
(0.0000°N, 0.0000°E)
Time: 07:30:35
(UTC+00:00)
Language:

ZHUHAI-1 02 - Orbit

View from above orbital plane
View from above orbital plane
View from above satellite
View from above satellite

Ground track
Ground track

The orbit data is extracted from the following two-line orbital elements,

1 42759U 17034B   18023.86922637 +.00000072 +00000-0 +18046-4 0  9991
2 42759 043.0167 155.4705 0009506 284.1235 219.0112 15.09170524033648
Epoch (UTC): 23 January 2018 20:51:41
Eccentricity: 0.0009506
inclination: 43.0167°
perigee height: 532 km
apogee height: 545 km
right ascension of ascending node: 155.4705°
argument of perigee: 284.1235°
revolutions per day: 15.09170524
mean anomaly at epoch: 219.0112°
orbit number at epoch: 3364

The dashed part of the orbit path shows where the satellite is in the earth's shadow,  

DLR